This is the latest recevied weather packets stored in our database for station/object KN6KDD. If no packets are shown the sender has not sent any weather packets the latest 1 day(s).
| Time | Temp. | Humidity | Pressure | Rain* | Wind** | Luminosity | Snow |
|---|---|---|---|---|---|---|---|
| 1778007885 | 14.44° C | 83% | 1355.3 hPa | 0 mm | 1.34 m/s, 307° | 342 W/m² | - |
| 1778007581 | 14.44° C | 85% | 1355.2 hPa | 0 mm | 1.79 m/s, 316° | 341 W/m² | - |
| 1778007278 | 14.44° C | 86% | 1355.5 hPa | 0 mm | 1.79 m/s, 8° | 247 W/m² | - |
| 1778006974 | 14.44° C | 82% | 1355.2 hPa | 0 mm | 0.89 m/s, 301° | 323 W/m² | - |
| 1778006671 | 14.44° C | 84% | 1355.5 hPa | 0 mm | 0.89 m/s, 37° | 261 W/m² | - |
| 1778006368 | 14.44° C | 83% | 1355.5 hPa | 0 mm | 1.34 m/s, 353° | 306 W/m² | - |
| 1778006065 | 13.89° C | 85% | 1355.3 hPa | 0 mm | 0.89 m/s, 5° | 354 W/m² | - |
| 1778005761 | 13.89° C | 84% | 1355.2 hPa | 0 mm | 0 m/s | 262 W/m² | - |
| 1778005458 | 13.89° C | 84% | 1355.3 hPa | 0 mm | 1.79 m/s, 286° | 250 W/m² | - |
| 1778005155 | 13.89° C | 86% | 1355.2 hPa | 0 mm | 0.89 m/s, 313° | 245 W/m² | - |
| 1778004852 | 13.89° C | 84% | 1355.3 hPa | 0 mm | 1.79 m/s, 306° | 286 W/m² | - |
| 1778004549 | 13.89° C | 86% | 1354.9 hPa | 0 mm | 1.34 m/s, 348° | 329 W/m² | - |
| 1778004245 | 13.89° C | 86% | 1355.1 hPa | 0 mm | 0.89 m/s, 5° | 505 W/m² | - |
| 1778003942 | 13.89° C | 88% | 1354.9 hPa | 0 mm | 0.89 m/s, 17° | 479 W/m² | - |
| 1778003638 | 13.33° C | 89% | 1354.8 hPa | 0 mm | 1.34 m/s, 335° | 364 W/m² | - |
| 1778003334 | 13.33° C | 89% | 1354.9 hPa | 0 mm | 1.34 m/s, 342° | 300 W/m² | - |
| 1778003032 | 12.78° C | 89% | 1354.9 hPa | 0 mm | 1.34 m/s, 303° | 318 W/m² | - |
| 1778002728 | 12.78° C | 90% | 1354.9 hPa | 0 mm | 0.89 m/s, 2° | 260 W/m² | - |
| 1778002425 | 12.78° C | 89% | 1354.9 hPa | 0 mm | 1.34 m/s, 316° | 295 W/m² | - |
| 1778002122 | 12.78° C | 91% | 1354.7 hPa | 0 mm | 1.34 m/s, 326° | 288 W/m² | - |
| 1778001820 | 12.22° C | 90% | 1354.7 hPa | 0 mm | 0.89 m/s, 282° | 262 W/m² | - |
| 1778001519 | 11.67° C | 91% | 1354.5 hPa | 0 mm | 0.89 m/s, 229° | 263 W/m² | - |
| 1778001216 | 12.22° C | 91% | 1354.5 hPa | 0 mm | 0.89 m/s, 274° | 208 W/m² | - |
| 1778000913 | 11.67° C | 92% | 1354.7 hPa | 0 mm | 1.79 m/s, 302° | 182 W/m² | - |
| 1778000610 | 11.67° C | 92% | 1354.8 hPa | 0 mm | 2.68 m/s, 295° | 156 W/m² | - |
* Rain latest hour (hover to see other rain measurements)
** Current wind speed in m/s (hover to see current wind gust speed)